Terug naar catalogus

HULIANWANG DIGUI-32

ActiefCommunicatiePO
NORAD 64285·PAYLOAD·🇨🇳 China

Gelanceerd Jun 5, 2025 vanaf Taiyuan Satellite Launch Center

Loading…

Volgende Passages (komende 24 uur)

TLE

VersSource: Space-Track

Epoch: Sep 14, 2026, 21:42 UTC

1 64285U 25121C   26257.90430292  .00000042  00000-0  63362-4 0  9997
2 64285  86.5010 343.1128 0001660 102.4899 257.6421 13.24412351 62039

Volg HULIANWANG DIGUI-32 in realtime met AllMySat

Download on the App Store